Weather History for KWLD - February, 2014

Change the Weather History Date:

Thursday, February 27, 2014

  Actual Average Record
Temperature  
Mean Temperature 31 °F -  
Max Temperature 50 °F 48 °F 73 °F (2006)
Min Temperature 12 °F 27 °F 7 °F (2002)
Degree Days  
Heating Degree Days 34    
Moisture  
Dew Point 12 °F    
Average Humidity 46    
Maximum Humidity 88    
Minimum Humidity 19    
Precipitation  
Precipitation 0.00 in - - ()
Sea Level Pressure  
Sea Level Pressure 30.00 in    
Wind  
Wind Speed 7 mph (SE)    
Max Wind Speed 16 mph    
Max Gust Speed 22 mph    
Visibility 10 miles    
Events      
Averages and records for this station are not official NWS values.
T = Trace of Precipitation, MM = Missing Value Source: NWS Daily Summary

Daily Weather History Graph

Daily Weather History Graph

Search for Another Location

Airport or City:

Trip Planner

Search our weather history database for the weather conditions in past years. The results will help you decide how hot, cold, wet, or windy it might be!

Date:

Astronomy

Feb. 27, 2014 Rise Set
Actual Time 7:01 AM CST 6:20 PM CST
Civil Twilight 6:35 AM CST 6:46 PM CST
Nautical Twilight 6:05 AM CST 7:16 PM CST
Astronomical Twilight 5:35 AM CST 7:46 PM CST
Moon 5:33 AM CST (2/27) 4:48 PM CST (2/27)
Length of Visible Light 12h 10m
Length of Day
11h 18m
Waning Crescent, 4% of the Moon is Illuminated
Feb 27
Waning Crescent
Mar 1
New
Mar 8
First Quarter
Mar 16
Full
Mar 23
Last Quarter

Hourly Weather History & Observations

Time (CST) Temp. Windchill Dew Point Humidity Pressure Visibility Wind Dir Wind Speed Gust Speed Precip Events Conditions
12:54 AM 23.0 °F 14.7 °F 12.9 °F 65% 30.11 in 10.0 mi SW 6.9 mph - N/A   Clear
1:54 AM 19.9 °F - 10.9 °F 68% 30.12 in 10.0 mi Calm Calm - N/A   Clear
2:54 AM 18.0 °F 12.7 °F 10.0 °F 71% 30.11 in 10.0 mi WSW 3.5 mph - N/A   Clear
3:54 AM 18.0 °F - 10.0 °F 71% 30.10 in 10.0 mi Calm Calm - N/A   Clear
4:54 AM 15.1 °F - 9.0 °F 77% 30.11 in 10.0 mi Calm Calm - N/A   Clear
5:54 AM 12.9 °F - 9.0 °F 84% 30.12 in 10.0 mi Calm Calm - N/A   Clear
6:54 AM 12.9 °F - 10.0 °F 88% 30.12 in 10.0 mi Calm Calm - N/A   Clear
7:54 AM 19.9 °F 14.9 °F 14.0 °F 78% 30.12 in 10.0 mi ENE 3.5 mph - N/A   Clear
8:54 AM 28.0 °F 20.0 °F 17.1 °F 63% 30.12 in 10.0 mi NE 8.1 mph - N/A   Clear
9:54 AM 36.0 °F 27.1 °F 15.1 °F 43% 30.11 in 10.0 mi ESE 13.8 mph - N/A   Clear
10:54 AM 39.9 °F 33.4 °F 14.0 °F 35% 30.11 in 10.0 mi East 10.4 mph - N/A   Clear
11:54 AM 42.1 °F 35.2 °F 12.9 °F 31% 30.07 in 10.0 mi East 12.7 mph - N/A   Clear
12:54 PM 46.0 °F 41.0 °F 12.0 °F 25% 30.03 in 10.0 mi SE 10.4 mph 18.4 mph N/A   Clear
1:54 PM 48.0 °F - 10.9 °F 22% 29.99 in 10.0 mi ESE 13.8 mph - N/A   Clear
2:54 PM 50.0 °F - 10.9 °F 21% 29.95 in 10.0 mi South 15.0 mph - N/A   Clear
3:54 PM 50.0 °F - 10.0 °F 20% 29.91 in 10.0 mi SSE 13.8 mph 21.9 mph N/A   Clear
4:54 PM 50.0 °F - 9.0 °F 19% 29.89 in 10.0 mi SSE 16.1 mph - N/A   Clear
5:54 PM 46.9 °F - 10.0 °F 22% 29.90 in 10.0 mi SE 6.9 mph - N/A   Clear
6:54 PM 43.0 °F 38.8 °F 12.0 °F 28% 29.89 in 10.0 mi ESE 6.9 mph - N/A   Clear
7:54 PM 41.0 °F 35.2 °F 12.9 °F 32% 29.88 in 10.0 mi ESE 9.2 mph - N/A   Clear
8:54 PM 39.0 °F 32.3 °F 14.0 °F 36% 29.86 in 10.0 mi ESE 10.4 mph - N/A   Clear
9:54 PM 39.9 °F 33.4 °F 14.0 °F 35% 29.84 in 10.0 mi ESE 10.4 mph - N/A   Clear
10:54 PM 39.0 °F 31.8 °F 16.0 °F 39% 29.83 in 10.0 mi SE 11.5 mph - N/A   Clear
11:54 PM 39.0 °F 31.4 °F 17.1 °F 41% 29.81 in 10.0 mi SE 12.7 mph - N/A   Clear